Weather History for KBIS - April, 2013

Change the Weather History Date:

Friday, April 5, 2013

  Actual Average Record
Temperature  
Mean Temperature 37 °F 39 °F  
Max Temperature 49 °F 52 °F 79 °F (1991)
Min Temperature 24 °F 27 °F -1 °F (1996)
Degree Days  
Heating Degree Days 28 26  
Month to date heating degree days 150 134  
Since 1 July heating degree days 7766 7653  
Cooling Degree Days 0 0  
Month to date cooling degree days 0 0  
Year to date cooling degree days 0 0  
Moisture  
Dew Point 22 °F    
Average Humidity 59    
Maximum Humidity 88    
Minimum Humidity 29    
Precipitation  
Precipitation 0.00 in 0.04 in 1.96 in (1997)
Month to date precipitation 0.00 0.18  
Year to date precipitation 1.42 1.99  
Snow  
Snow 0.00 in 0.30 in 15.20 in (1997)
Month to date snowfall 0.0 1.2  
Since 1 July snowfall 35.5 47.8  
Snow Depth 0.00 in    
Sea Level Pressure  
Sea Level Pressure 29.97 in    
Wind  
Wind Speed 15 mph (ESE)    
Max Wind Speed 24 mph    
Max Gust Speed 30 mph    
Visibility 10 miles    
Events      
T = Trace of Precipitation, MM = Missing Value Source: NWS Daily Summary

Daily Weather History Graph

Daily Weather History Graph

Search for Another Location

Airport or City:

Trip Planner

Search our weather history database for the weather conditions in past years. The results will help you decide how hot, cold, wet, or windy it might be!

Date:

Astronomy

Apr. 05, 2013 Rise Set
Actual Time 7:13 AM CDT 8:18 PM CDT
Civil Twilight 6:43 AM CDT 8:49 PM CDT
Nautical Twilight 6:05 AM CDT 9:26 PM CDT
Astronomical Twilight 5:26 AM CDT 10:05 PM CDT
Moon 4:39 AM CDT (4/5) 3:28 PM CDT (4/5)
Length of Visible Light 14h 06m
Length of Day
13h 04m
Waning Crescent, 23% of the Moon is Illuminated
Apr 5
Waning Crescent
Apr 10
New
Apr 18
First Quarter
Apr 25
Full
May 2
Last Quarter

Hourly Weather History & Observations

Time (CDT) Temp. Windchill Dew Point Humidity Pressure Visibility Wind Dir Wind Speed Gust Speed Precip Events Conditions
12:52 AM 24.1 °F 16.0 °F 21.9 °F 91% 30.24 in 10.0 mi East 6.9 mph - N/A   Clear
1:52 AM 24.1 °F 14.4 °F 21.0 °F 88% 30.22 in 10.0 mi East 9.2 mph - N/A   Partly Cloudy
2:52 AM 24.1 °F 15.2 °F 21.0 °F 88% 30.19 in 10.0 mi East 8.1 mph - N/A   Clear
3:52 AM 25.0 °F 15.5 °F 21.9 °F 88% 30.17 in 10.0 mi East 9.2 mph - N/A   Clear
4:52 AM 26.1 °F 16.8 °F 23.0 °F 88% 30.16 in 10.0 mi ESE 9.2 mph - N/A   Overcast
5:52 AM 27.0 °F 17.3 °F 23.0 °F 85% 30.14 in 10.0 mi ESE 10.4 mph - N/A   Overcast
6:27 AM 27.0 °F 16.1 °F 24.1 °F 89% 30.06 in 10.0 mi ESE 12.7 mph - N/A   Overcast
6:52 AM 27.0 °F 17.3 °F 23.0 °F 85% 30.11 in 10.0 mi ESE 10.4 mph - N/A   Overcast
7:19 AM 26.1 °F 13.1 °F 19.9 °F 78% 30.04 in 10.0 mi ESE 17.3 mph - N/A   Overcast
7:52 AM 26.1 °F 16.2 °F 21.0 °F 81% 30.10 in 10.0 mi ESE 10.4 mph - N/A   Overcast
8:52 AM 27.0 °F 14.7 °F 18.0 °F 69% 30.08 in 10.0 mi SE 16.1 mph - N/A   Overcast
9:52 AM 28.9 °F 18.6 °F 17.1 °F 61% 30.04 in 10.0 mi SE 12.7 mph - N/A   Overcast
10:52 AM 33.1 °F 22.2 °F 14.0 °F 46% 30.00 in 10.0 mi SE 17.3 mph - N/A   Overcast
11:52 AM 37.9 °F 26.8 °F 12.0 °F 35% 29.95 in 10.0 mi SE 24.2 mph - N/A   Clear
12:52 PM 42.1 °F 32.3 °F 12.9 °F 31% 29.92 in 10.0 mi SSE 24.2 mph 28.8 mph N/A   Clear
1:52 PM 44.1 °F 35.7 °F 17.1 °F 34% 29.88 in 10.0 mi SSE 20.7 mph - N/A   Partly Cloudy
2:52 PM 45.0 °F 37.1 °F 21.0 °F 39% 29.83 in 10.0 mi SSE 19.6 mph 26.5 mph N/A   Mostly Cloudy
3:52 PM 45.0 °F 36.9 °F 21.9 °F 40% 29.81 in 10.0 mi SE 20.7 mph - N/A   Clear
4:52 PM 46.9 °F - 24.1 °F 41% 29.78 in 10.0 mi SE 18.4 mph - N/A   Clear
5:52 PM 48.0 °F - 25.0 °F 41% 29.75 in 10.0 mi SE 15.0 mph - N/A   Clear
6:52 PM 46.9 °F - 26.1 °F 44% 29.74 in 10.0 mi SE 15.0 mph - N/A   Clear
7:52 PM 45.0 °F 40.6 °F 27.0 °F 49% 29.74 in 10.0 mi ESE 8.1 mph - N/A   Clear
8:52 PM 36.0 °F 26.7 °F 28.9 °F 76% 29.75 in 10.0 mi East 15.0 mph - N/A   Clear
9:52 PM 35.1 °F 26.4 °F 30.0 °F 82% 29.77 in 10.0 mi East 12.7 mph - N/A   Clear
10:52 PM 34.0 °F 25.5 °F 30.0 °F 85% 29.75 in 10.0 mi East 11.5 mph - N/A   Clear
11:52 PM 34.0 °F 27.2 °F 30.0 °F 85% 29.77 in 10.0 mi East 8.1 mph - N/A   Overcast